This is the latest recevied weather packets stored in our database for station/object KG4YZY-1. If no packets are shown the sender has not sent any weather packets the latest 1 day(s).
| Time | Temp. | Humidity | Pressure | Rain* | Wind** | Luminosity | Snow |
|---|---|---|---|---|---|---|---|
| 1778010603 | 28.33° C | 60% | 1016.4 hPa | 0 mm | 2.24 m/s, 316° | - | - |
| 1778010303 | 28.33° C | 58% | 1016.5 hPa | 0 mm | 2.68 m/s, 311° | - | - |
| 1778010003 | 28.33° C | 59% | 1016.5 hPa | 0 mm | 2.68 m/s, 271° | - | - |
| 1778009703 | 28.33° C | 59% | 1016.6 hPa | 0 mm | 3.13 m/s, 321° | - | - |
| 1778009404 | 28.33° C | 60% | 1016.7 hPa | 0 mm | 2.24 m/s, 276° | - | - |
| 1778009103 | 28.33° C | 59% | 1016.6 hPa | 0 mm | 2.68 m/s, 263° | - | - |
| 1778008804 | 28.33° C | 58% | 1016.6 hPa | 0 mm | 2.24 m/s, 257° | - | - |
| 1778008503 | 28.33° C | 60% | 1016.7 hPa | 0 mm | 2.24 m/s, 304° | - | - |
| 1778008204 | 28.33° C | 60% | 1016.7 hPa | 0 mm | 2.68 m/s, 302° | - | - |
| 1778007903 | 28.33° C | 59% | 1016.6 hPa | 0 mm | 2.24 m/s, 287° | - | - |
| 1778007604 | 28.33° C | 58% | 1016.7 hPa | 0 mm | 2.24 m/s, 308° | - | - |
| 1778007303 | 28.89° C | 58% | 1016.7 hPa | 0 mm | 1.34 m/s, 248° | - | - |
| 1778007003 | 28.33° C | 59% | 1016.8 hPa | 0 mm | 1.34 m/s, 7° | - | - |
| 1778006703 | 28.33° C | 58% | 1016.8 hPa | 0 mm | 2.24 m/s, 318° | - | - |
| 1778006403 | 28.33° C | 60% | 1016.9 hPa | 0 mm | 2.68 m/s, 298° | - | - |
| 1778006103 | 28.33° C | 60% | 1016.9 hPa | 0 mm | 2.24 m/s, 333° | - | - |
| 1778005804 | 28.33° C | 61% | 1017 hPa | 0 mm | 2.68 m/s, 326° | - | - |
| 1778005503 | 28.33° C | 59% | 1017 hPa | 0 mm | 2.24 m/s, 336° | - | - |
| 1778005203 | 28.89° C | 58% | 1017 hPa | 0 mm | 2.68 m/s, 315° | - | - |
| 1778004904 | 28.33° C | 59% | 1017 hPa | 0 mm | 1.79 m/s, 321° | - | - |
| 1778004604 | 28.33° C | 60% | 1017 hPa | 0 mm | 1.79 m/s, 296° | - | - |
| 1778004304 | 28.33° C | 60% | 1017.1 hPa | 0 mm | 1.79 m/s, 255° | - | - |
| 1778004003 | 27.78° C | 62% | 1017.1 hPa | 0 mm | 1.34 m/s, 336° | - | - |
| 1778003704 | 27.78° C | 62% | 1017.2 hPa | 0 mm | 2.68 m/s, 266° | - | - |
| 1778003403 | 27.78° C | 61% | 1017.3 hPa | 0 mm | 1.34 m/s, 327° | - | - |
* Rain latest hour (hover to see other rain measurements)
** Current wind speed in m/s (hover to see current wind gust speed)